Regional Weather Roundup
Issued by NWS Goodland, KS

Home | Current Version | Previous Version | Text Only | Print | Product List | Glossary On
Versions: 1 2 3 4 5 6 7 8 9 10 11 12 13 14 15 16 17 18 19 20 21 22 23 24 25 26 27 28 29 30 31 32 33 34 35 36 37 38 39 40 41 42 43 44 45 46 47 48 49 50
000
ASUS43 KGLD 121008
RWRGLD

GOODLAND FORECAST AREA HOURLY WEATHER ROUNDUP
NATIONAL WEATHER SERVICE GOODLAND KS
300 AM MST TUE DEC 12 2017

...OFFICIAL OBSERVATIONS...

CITY           SKY/WX    TMP DP  RH WIND       PRES   REMARKS
GOODLAND KS    CLOUDY    20  10  65 W10       30.40F WCI   9
HILL CITY KS   CLOUDY    28  22  78 NW10      30.41F WCI  19
IMPERIAL NEB   CLOUDY    17  11  77 W3        30.38F
MCCOOK NEB     CLOUDY    22  18  85 W8        30.39F
AKRON CO       CLOUDY    29  10  45 W14       30.38F WCI  18
BURLINGTON CO  CLOUDY    19   9  65 W10       30.40F WCI   7
LIMON CO       CLOUDY    22   8  55 NW7       30.43F
$$

...UNOFFICIAL OBSERVATIONS...

CITY           SKY/WX    TMP DP  RH WIND       PRES   REMARKS
COLBY KS       CLOUDY    23  19  86 W7        30.42S
LENORA KS        N/A     26  32 100 NW6         N/A
NORTON KS      CLEAR     25  18  74 W12       30.38  WCI  14
SHARON SPRINGS   N/A     17   9  70 CALM        N/A
TRENTON NEB      N/A     21  32 100 NW6         N/A
KIT CARSON CO    N/A     25   9  49 CALM        N/A
YUMA CO        FAIR      23  10  58 W10       30.39S WCI  12
$$



USA.gov is the U.S. government's official web portal to all federal, state and local government web resources and services.